User: anonymous   Login
Location: Wildcat Hills Observatory
(41.6350°N, 103.6812°W)
Time: 04:13:28
(UTC-06:00)
Language:

Cosmos 1634 Rocket - Orbit

View from above orbital plane
View from above orbital plane
View from above satellite
View from above satellite

Ground track
Ground track

The orbit data is extracted from the following two-line orbital elements,

1 15598U 85022B   16238.79575502  .00000038  00000-0  23699-4 0  9999
2 15598  82.9401 326.6658 0021500 212.2842 263.4024 13.76540032579822
Epoch (UTC): 25 August 2016 19:05:53
Eccentricity: 0.0021500
inclination: 82.9401°
perigee height: 960 km
apogee height: 992 km
right ascension of ascending node: 326.6658°
argument of perigee: 212.2842°
revolutions per day: 13.76540032
mean anomaly at epoch: 263.4024°
orbit number at epoch: 57982

The dashed part of the orbit path shows where the satellite is in the earth's shadow,  

DLR